Find Globalstar M024

NORAD ID: 25883 Int'l Des: 1999-043 Owner: GLOBT Country: US Constellation: globalstar operational
MEOCIRCULAR

Live-Position

3D-Globus wird geladen...

Über Globalstar M024

Beschreibung wird geladen...

Nächste Überflüge

Passes for default location (London). Set your location on the main map for personalized predictions.

Höhenverlauf

Loading altitude history...

Zweizeiliger Elementsatz

1 25883U 99043A 26131.91931407 -.00000096 00000-0 -11009-2 0 9998
2 25883 52.0047 358.8836 0000802 290.1659 85.6570 11.10167478151373
Epoch: 11. Mai 2026 • Age: 6 hours

Aktueller Status

Höhe 2111.8 km
Geschwindigkeit 6.85 km/s
Subsatellitenpunkt -8.99°S, 55.51°E
Startdatum 17. Aug. 1999
Alter 26.7 years
Typ communications

Technische Details

Klassifizierung Payload
Masse 450.00 kg
Trockenmasse 380.00 kg
Gesamtmasse 450.00 kg
Länge 1.50 m
Durchmesser 0.60 m
Spannweite 12.00 m
Form Box + 2 Pan
Hersteller LOR
Bus-Typ LS-400
Phasenstatus In Orbit
Besitzer/Staat GLOBT/US

Most Searched